| time (UTC) | temp F | wind direction | speed MPH | gust MPH | rain 1hr in | rain 24hr in | rain mn in | humidity % | barometer mb |
| 20260904234532 | 74 | 121 | 0.0 | 1.0 | 0.00 | 0.06 | 0.06 | 80 | 1009.3 |
| 20260904233026 | 75 | 121 | 0.0 | 0.0 | 0.00 | 0.06 | 0.06 | 79 | 1009.2 |
| 20260904231523 | 76 | 121 | 0.0 | 0.0 | 0.00 | 0.06 | 0.06 | 77 | 1009.2 |
| 20260904230023 | 77 | 121 | 0.0 | 0.0 | 0.00 | 0.06 | 0.06 | 75 | 1009.1 |
| 20260904224527 | 78 | 121 | 0.0 | 0.0 | 0.00 | 0.06 | 0.06 | 72 | 1009.2 |
| 20260904223021 | 78 | 121 | 0.0 | 0.0 | 0.00 | 0.06 | 0.06 | 71 | 1009.3 |
| 20260904221525 | 79 | 121 | 0.0 | 2.0 | 0.00 | 0.06 | 0.06 | 69 | 1009.2 |
| 20260904220026 | 79 | 38 | 0.0 | 2.0 | 0.00 | 0.06 | 0.06 | 69 | 1009.0 |
| 20260904214531 | 79 | 39 | 0.0 | 2.0 | 0.00 | 0.06 | 0.06 | 67 | 1009.1 |
| 20260904213019 | 80 | 38 | 0.0 | 4.0 | 0.01 | 0.06 | 0.06 | 66 | 1009.1 |
| 20260904211522 | 80 | 234 | 0.0 | 4.0 | 0.01 | 0.06 | 0.06 | 65 | 1009.0 |
| 20260904210016 | 80 | 53 | 0.0 | 8.0 | 0.01 | 0.06 | 0.06 | 65 | 1009.1 |
| 20260904204514 | 81 | 263 | 0.0 | 5.0 | 0.01 | 0.06 | 0.06 | 63 | 1009.1 |
| 20260904203027 | 81 | 244 | 0.0 | 9.0 | 0.01 | 0.05 | 0.05 | 64 | 1009.2 |
| 20260904201514 | 81 | 232 | 1.0 | 8.0 | 0.01 | 0.05 | 0.05 | 63 | 1009.2 |
| 20260904200014 | 82 | 309 | 0.0 | 9.0 | 0.01 | 0.05 | 0.05 | 63 | 1009.2 |
| 20260904194520 | 82 | 230 | 0.0 | 10.0 | 0.01 | 0.05 | 0.05 | 64 | 1009.3 |
| 20260904193011 | 82 | 319 | 2.0 | 8.0 | 0.01 | 0.04 | 0.04 | 64 | 1009.4 |
| 20260904191510 | 82 | 22 | 0.0 | 7.0 | 0.01 | 0.04 | 0.04 | 62 | 1009.5 |
| 20260904190008 | 82 | 304 | 2.0 | 9.0 | 0.01 | 0.04 | 0.04 | 63 | 1009.6 |
| 20260904184507 | 82 | 298 | 1.0 | 6.0 | 0.02 | 0.04 | 0.04 | 64 | 1009.5 |
| 20260904183007 | 82 | 312 | 0.0 | 5.0 | 0.01 | 0.03 | 0.03 | 66 | 1009.4 |
| 20260904181505 | 81 | 235 | 0.0 | 5.0 | 0.01 | 0.03 | 0.03 | 68 | 1009.3 |
| 20260904180004 | 81 | 61 | 0.0 | 7.0 | 0.02 | 0.03 | 0.03 | 67 | 1009.3 |
| 20260904174503 | 81 | 263 | 2.0 | 9.0 | 0.01 | 0.02 | 0.02 | 69 | 1009.4 |
| 20260904173006 | 81 | 277 | 1.0 | 10.0 | 0.01 | 0.02 | 0.02 | 68 | 1009.6 |
| 20260904171501 | 80 | 217 | 0.0 | 5.0 | 0.02 | 0.02 | 0.02 | 72 | 1009.6 |
| 20260904170100 | 80 | 26 | 0.0 | 8.0 | 0.01 | 0.01 | 0.01 | 73 | 1009.7 |
| 20260904164559 | 80 | 197 | 1.0 | 7.0 | 0.01 | 0.01 | 0.01 | 75 | 1009.7 |
| 20260904163057 | 80 | 74 | 0.0 | 4.0 | 0.01 | 0.01 | 0.01 | 76 | 1009.8 |
| 20260904161617 | 80 | 313 | 0.0 | 7.0 | 0.00 | 0.00 | 0.00 | 79 | 1009.7 |
| 20260904160055 | 79 | 78 | 0.0 | 9.0 | 0.00 | 0.00 | 0.00 | 80 | 1010.0 |
| 20260904154552 | 79 | 78 | 1.0 | 7.0 | 0.00 | 0.00 | 0.00 | 81 | 1010.1 |
| 20260904153055 | 78 | 76 | 0.0 | 6.0 | 0.00 | 0.00 | 0.00 | 82 | 1010.1 |
| 20260904151549 | 78 | 133 | 0.0 | 4.0 | 0.00 | 0.00 | 0.00 | 82 | 1010.1 |
| 20260904150056 | 78 | 39 | 0.0 | 8.0 | 0.00 | 0.00 | 0.00 | 84 | 1010.0 |
| 20260904144557 | 77 | 348 | 0.0 | 4.0 | 0.00 | 0.00 | 0.00 | 85 | 1009.9 |
| 20260904143050 | 76 | 52 | 0.0 | 6.0 | 0.00 | 0.00 | 0.00 | 90 | 1010.0 |
| 20260904141540 | 76 | 70 | 0.0 | 3.0 | 0.00 | 0.00 | 0.00 | 93 | 1009.9 |
| 20260904140050 | 75 | 64 | 0.0 | 5.0 | 0.00 | 0.00 | 0.00 | 95 | 1010.0 |
| 20260904134536 | 74 | 80 | 0.0 | 6.0 | 0.00 | 0.00 | 0.00 | 96 | 1009.8 |
| 20260904133033 | 74 | 336 | 0.0 | 4.0 | 0.00 | 0.00 | 0.00 | 96 | 1009.8 |
| 20260904131528 | 74 | 39 | 0.0 | 4.0 | 0.00 | 0.00 | 0.00 | 96 | 1009.9 |
| 20260904130025 | 73 | 28 | 0.0 | 7.0 | 0.00 | 0.00 | 0.00 | 96 | 1009.9 |
| 20260904124524 | 73 | 27 | 1.0 | 5.0 | 0.00 | 0.00 | 0.00 | 96 | 1009.9 |
| 20260904123022 | 73 | 35 | 0.0 | 3.0 | 0.00 | 0.00 | 0.00 | 96 | 1009.8 |
| 20260904121523 | 72 | 292 | 0.0 | 2.0 | 0.00 | 0.00 | 0.00 | 96 | 1009.8 |
| 20260904120024 | 72 | 225 | 0.0 | 2.0 | 0.00 | 0.00 | 0.00 | 96 | 1009.9 |
| 20260904114525 | 72 | 227 | 0.0 | 0.0 | 0.00 | 0.00 | 0.00 | 96 | 1009.9 |
| 20260904113029 | 71 | 227 | 0.0 | 0.0 | 0.00 | 0.00 | 0.00 | 96 | 1009.8 |
| 20260904111522 | 71 | 227 | 0.0 | 0.0 | 0.00 | 0.00 | 0.00 | 96 | 1009.7 |
| 20260904110020 | 71 | 227 | 0.0 | 1.0 | 0.00 | 0.00 | 0.00 | 96 | 1009.6 |
| 20260904104519 | 71 | 267 | 0.0 | 0.0 | 0.00 | 0.00 | 0.00 | 95 | 1009.2 |
| 20260904103018 | 71 | 269 | 0.0 | 0.0 | 0.00 | 0.00 | 0.00 | 95 | 1008.9 |
| 20260904101518 | 71 | 269 | 0.0 | 0.0 | 0.00 | 0.00 | 0.00 | 95 | 1008.8 |
| 20260904100017 | 71 | 269 | 0.0 | 0.0 | 0.00 | 0.00 | 0.00 | 95 | 1008.9 |
| 20260904094531 | 71 | 269 | 0.0 | 0.0 | 0.00 | 0.00 | 0.00 | 95 | 1008.9 |
| 20260904093016 | 71 | 269 | 0.0 | 1.0 | 0.00 | 0.00 | 0.00 | 95 | 1009.3 |
| 20260904091516 | 71 | 271 | 0.0 | 2.0 | 0.00 | 0.00 | 0.00 | 95 | 1009.4 |
| 20260904090015 | 71 | 271 | 0.0 | 7.0 | 0.00 | 0.00 | 0.00 | 95 | 1009.8 |
| 20260904084514 | 71 | 157 | 0.0 | 3.0 | 0.00 | 0.00 | 0.00 | 94 | 1009.2 |
| 20260904083013 | 71 | 81 | 0.0 | 1.0 | 0.00 | 0.00 | 0.00 | 95 | 1008.8 |
| 20260904081512 | 71 | 81 | 0.0 | 2.0 | 0.00 | 0.00 | 0.00 | 94 | 1008.9 |
| 20260904080010 | 71 | 81 | 0.0 | 1.0 | 0.00 | 0.00 | 0.00 | 94 | 1009.1 |
| 20260904074508 | 72 | 81 | 0.0 | 2.0 | 0.00 | 0.00 | 0.00 | 94 | 1009.3 |
| 20260904073007 | 72 | 188 | 0.0 | 2.0 | 0.00 | 0.00 | 0.00 | 94 | 1010.1 |
| 20260904071506 | 72 | 44 | 1.0 | 4.0 | 0.00 | 0.00 | 0.00 | 94 | 1010.3 |
| 20260904070004 | 73 | 54 | 1.0 | 7.0 | 0.00 | 0.00 | 0.00 | 95 | 1009.3 |
| 20260904064501 | 73 | 173 | 0.0 | 1.0 | 0.00 | 0.00 | 0.00 | 95 | 1009.6 |
| 20260904063126 | 73 | 173 | 0.0 | 0.0 | 0.00 | 0.00 | 0.00 | 95 | 1009.6 |
| 20260904061559 | 73 | 173 | 0.0 | 0.0 | 0.00 | 0.00 | 0.00 | 95 | 1009.6 |
| 20260904060110 | 73 | 173 | 0.0 | 3.0 | 0.00 | 0.00 | 0.00 | 95 | 1009.9 |
| 20260904054556 | 73 | 173 | 0.0 | 4.0 | 0.00 | 0.00 | 0.00 | 95 | 1010.0 |
| 20260904053055 | 73 | 174 | 0.0 | 0.0 | 0.00 | 0.00 | 0.00 | 95 | 1010.1 |
| 20260904051552 | 73 | 174 | 0.0 | 2.0 | 0.00 | 0.00 | 0.00 | 95 | 1010.5 |
| 20260904050056 | 73 | 174 | 0.0 | 1.0 | 0.00 | 0.00 | 0.00 | 95 | 1010.7 |
| 20260904044550 | 73 | 174 | 0.0 | 0.0 | 0.00 | 0.00 | 0.00 | 94 | 1010.7 |
| 20260904043047 | 74 | 174 | 0.0 | 0.0 | 0.00 | 0.00 | 0.00 | 94 | 1010.7 |
| 20260904041545 | 74 | 174 | 0.0 | 0.0 | 0.00 | 0.00 | 0.00 | 94 | 1011.0 |
| 20260904040044 | 74 | 174 | 0.0 | 0.0 | 0.00 | 0.00 | 0.00 | 94 | 1010.9 |
| 20260904034544 | 74 | 174 | 0.0 | 0.0 | 0.00 | 0.00 | 0.00 | 94 | 1011.2 |
| 20260904033038 | 74 | 174 | 0.0 | 1.0 | 0.00 | 0.00 | 0.00 | 94 | 1011.1 |
| 20260904031537 | 74 | 174 | 0.0 | 4.0 | 0.00 | 0.00 | 0.00 | 94 | 1011.4 |
| 20260904030038 | 74 | 174 | 0.0 | 3.0 | 0.00 | 0.00 | 0.00 | 94 | 1011.5 |
| 20260904024536 | 74 | 174 | 0.0 | 0.0 | 0.00 | 0.00 | 0.00 | 94 | 1011.5 |
| 20260904023039 | 74 | 174 | 0.0 | 1.0 | 0.00 | 0.00 | 0.00 | 94 | 1011.4 |
| 20260904021547 | 74 | 174 | 0.0 | 1.0 | 0.00 | 0.00 | 0.00 | 93 | 1011.8 |
| 20260904020035 | 74 | 175 | 0.0 | 0.0 | 0.00 | 0.00 | 0.00 | 93 | 1011.9 |
| 20260904014533 | 74 | 175 | 0.0 | 4.0 | 0.00 | 0.00 | 0.00 | 93 | 1012.2 |
| 20260904013047 | 74 | 175 | 0.0 | 1.0 | 0.00 | 0.00 | 0.00 | 92 | 1012.3 |
| 20260904011532 | 74 | 176 | 0.0 | 1.0 | 0.00 | 0.00 | 0.00 | 92 | 1012.1 |
| 20260904010034 | 74 | 176 | 0.0 | 0.0 | 0.00 | 0.00 | 0.00 | 92 | 1012.1 |
| 20260904004532 | 74 | 176 | 0.0 | 1.0 | 0.00 | 0.00 | 0.00 | 91 | 1012.1 |
| 20260904003032 | 75 | 176 | 0.0 | 0.0 | 0.00 | 0.00 | 0.00 | 91 | 1012.3 |
| 20260904001550 | 75 | 176 | 0.0 | 0.0 | 0.00 | 0.00 | 0.00 | 90 | 1011.7 |
| 20260904000031 | 75 | 176 | 0.0 | 0.0 | 0.00 | 0.00 | 0.00 | 90 | 1011.4 |